sat.trackr.live / text

‹ back to catalog

GEESAT-4 03

NORAD 65121 · 2025-170C

PAYLOAD ACTIVE UNKNOWN

§ Identity

Operator
Country
PRC
Launch date
2025-08-08
Launch site
YSLA
Launch vehicle
Mass (kg)
RCS (m²)

External: N2YO · Heavens-Above · Gunter

§ Orbital elements

Epoch: 2026-09-21T20:57:03.963456Z

Period
97.02 min
Inclination
49.9919°
Eccentricity
0.0020339
Mean motion
14.84282518 rev/d
Perigee alt
601.6 km
Apogee alt
630.1 km
Semi-major
6,994.0 km
B*
1.4149e-4
RAAN
85.6265°
Arg perigee
73.2324°
Mean anomaly
287.0844°
Rev number
6,079

§ Raw data

GEESAT-4 031 65121U 25170C   26264.87296254  .00000970  00000+0  14149-3 0  99902 65121  49.9919  85.6265 0020339  73.2324 287.0844 14.84282518 60796

JSON: /api/v1/satellites/65121 · /tle

For live sub-satellite position, see the globe view (requires WebGL).

§ Visibility from observer

Set your observer location to see the next 7 days of passes ≥ 10°. The values pass through the URL so the page stays shareable.

No JS? Fill the form by hand. The geolocation button needs JavaScript.